[Iaude] MPEC A103: 2024 AK2 [a=1.75,e=0.46,i=8.8,H=23.4]
    mpec at marsden.cfa.harvard.edu 
    mpec at marsden.cfa.harvard.edu
       
    Tue Jan  9 18:08:07 EST 2024
    
    
  
M.P.E.C. 2024-A103                              Issued 2024 January 9, 23:06 UT
     The Minor Planet Electronic Circulars contain information on unusual
         minor planets, routine data on comets and natural satellites,
         and occasional editorial announcements.  They are published
    on behalf of Division F of the International Astronomical Union by the
          Minor Planet Center, Smithsonian Astrophysical Observatory,
                          Cambridge, MA 02138, U.S.A.
			  
             Prepared using the Tamkin Foundation Computer Network
                              MPC at CFA.HARVARD.EDU
            URL https://www.minorplanetcenter.net/    ISSN 1523-6714
                                    2024 AK2                                    
Observations:
     K24A02K* C2024 01 01.59760311 05 10.338+57 40 14.60         20.81iXEA103F51
     K24A02K  C2024 01 01.60668211 05 04.140+57 39 37.47         20.82iXEA103F51
     K24A02K  C2024 01 01.62489111 04 51.756+57 38 22.86         21.59iXEA103F51
     K24A02K  C2024 01 02.61389910 54 43.355+56 29 28.70         21.30GVEA103F51
     K24A02K  C2024 01 06.62875610 19 59.684+51 39 38.46         21.63wXEA103F52
     K24A02K  C2024 01 06.63778610 19 55.305+51 38 58.07         21.23wXEA103F52
     K24A02K  C2024 01 06.64682810 19 50.930+51 38 17.43         20.96wXEA103F52
     K24A02K  C2024 01 06.65587510 19 46.557+51 37 36.67         20.81wXEA103F52
     K24A02K  C2024 01 09.35198410 01 18.396+48 21 51.83         21.2 GVEA103654
     K24A02K  C2024 01 09.36401310 01 13.538+48 21 01.32         21.2 GVEA103654
Observer details:
654 Table Mountain Observatory, Wrightwood-PHMC.  Observers N. Evans, P. Choi,
    N. Saini, C. Zhai, R. Trahan, M. Shao.  1.0-m Reflector + CCD.
F51 Pan-STARRS 1, Haleakala.  Observers J. Herman, T. Lowe, P. Minguez, A.
    Schultz, I. Smith.  Measurers K. Chambers, T. de Boer, J. Fairlamb, H.
    Gao, M. Huber, C.-C. Lin, E. Magnier, Y. Ramanjooloo, R. Wainscoat, R.
    Weryk.  1.8-m Ritchey-Chretien + CCD.
F52 Pan-STARRS 2, Haleakala.  Observers J. Herman, T. Lowe, P. Minguez, A.
    Schultz, I. Smith.  Measurers K. Chambers, T. de Boer, J. Fairlamb, H.
    Gao, M. Huber, C.-C. Lin, E. Magnier, Y. Ramanjooloo, R. Wainscoat, R.
    Weryk.  1.8-m Ritchey-Chretien + CCD.
Orbital elements:
2024 AK2                                                 Earth MOID = 0.1222 AU
Epoch 2023 Sept. 13.0 TT = JDT 2460200.5                MPC                     
M 330.57278              (2000.0)            P               Q                  
n   0.42540333     Peri.   91.97903     +0.57817608     -0.81045960             
a   1.7509300      Node   322.18641     +0.67415685     +0.53954384             
e   0.4569943      Incl.    8.83532     +0.45959216     +0.22813961             
P   2.32           H   23.46          G   0.15           U   9                  
Residuals in seconds of arc
240101 F51  0.2-  0.2-    240106 F52  0.1+  0.0     240109 654  0.0   0.0
240101 F51  0.1-  0.1-    240106 F52  0.1+  0.0     240109 654  0.1-  0.0
240101 F51  0.3+  0.4+    240106 F52  0.1+  0.0
240102 F51  0.1-  0.2-    240106 F52  0.0   0.0
Ephemeris:
2024 AK2                 a,e,i = 1.75, 0.46, 9                   q = 0.9508
Date    TT    R. A. (2000) Decl.     Delta      r    Elong.  Phase     V
2023 12 10    17 00 17.7 +59 43 41   0.1371  0.9767    82.6    89.4    22.2
...
2023 12 25    12 50 39.6 +64 42 37   0.1334  1.0304   107.0    65.9    21.5
...
2024 01 02    11 00 56.8 +57 11 53   0.1426  1.0684   123.4    50.2    21.2
...
2024 01 08    10 10 10.4 +49 59 26   0.1555  1.1002   135.8    38.5    21.2
2024 01 09    10 03 30.9 +48 47 06   0.1582  1.1058   137.8    36.6    21.2
2024 01 10    09 57 15.9 +47 35 25   0.1610  1.1114   139.8    34.8    21.2
...
2024 01 16    09 26 47.4 +40 47 54   0.1815  1.1461   151.3    24.4    21.2
...
2024 01 24    08 59 38.6 +33 10 03   0.2177  1.1950   163.9    13.2    21.3
...
2024 02 08    08 33 17.4 +23 26 06   0.3128  1.2918   165.7    10.9    22.2
A. U. Tomatic                (C) Copyright 2024 MPC           M.P.E.C. 2024-A103
    
    
More information about the Iaude
mailing list